This is the latest recevied weather packets stored in our database for station/object KC5DAQ-22. If no packets are shown the sender has not sent any weather packets the latest 10 day(s).
| Time | Temp. | Humidity | Pressure | Rain* | Wind** | Luminosity | Snow |
|---|---|---|---|---|---|---|---|
| 1777682705 | 14.44° C | 95% | 1010 hPa | 2.54 mm | - | 0 W/m² | - |
| 1777682643 | 15° C | 95% | 1010.1 hPa | 2.54 mm | - | 0 W/m² | - |
| 1777682584 | 15° C | 95% | 1010.1 hPa | 2.29 mm | - | 0 W/m² | - |
| 1777682522 | 15° C | 96% | 1010.3 hPa | 2.29 mm | - | 0 W/m² | - |
| 1777682462 | 15° C | 95% | 1010.3 hPa | 2.03 mm | - | 0 W/m² | - |
| 1777682404 | 14.44° C | 95% | 1010.4 hPa | 2.03 mm | - | 0 W/m² | - |
| 1777682343 | 14.44° C | 95% | 1010.4 hPa | 1.78 mm | - | 0 W/m² | - |
| 1777682283 | 14.44° C | 95% | 1010.4 hPa | 2.03 mm | - | 0 W/m² | - |
| 1777682222 | 14.44° C | 95% | 1010.3 hPa | 2.03 mm | - | 0 W/m² | - |
| 1777682162 | 14.44° C | 95% | 1010.2 hPa | 2.03 mm | - | 0 W/m² | - |
| 1777682103 | 14.44° C | 95% | 1010.1 hPa | 1.78 mm | - | 0 W/m² | - |
| 1777682043 | 14.44° C | 95% | 1010.1 hPa | 1.78 mm | - | 0 W/m² | - |
| 1777681983 | 15° C | 95% | 1010.2 hPa | 2.03 mm | - | 0 W/m² | - |
| 1777681922 | 15° C | 95% | 1010.2 hPa | 2.03 mm | - | 5 W/m² | - |
| 1777681863 | 15° C | 95% | 1010.2 hPa | 2.03 mm | - | 5 W/m² | - |
| 1777681803 | 15° C | 95% | 1010.3 hPa | 2.03 mm | - | 5 W/m² | - |
| 1777681743 | 15° C | 95% | 1010.3 hPa | 2.03 mm | - | 5 W/m² | - |
| 1777681683 | 15° C | 95% | 1010.3 hPa | 3.05 mm | - | 5 W/m² | - |
| 1777681623 | 15° C | 95% | 1010.2 hPa | 3.05 mm | - | 7 W/m² | - |
| 1777681562 | 15° C | 95% | 1010.2 hPa | 3.05 mm | - | 7 W/m² | - |
| 1777681504 | 15° C | 95% | 1010 hPa | 3.05 mm | - | 9 W/m² | - |
| 1777681443 | 15° C | 95% | 1009.9 hPa | 3.05 mm | - | 9 W/m² | - |
| 1777681382 | 15° C | 95% | 1009.9 hPa | 3.05 mm | - | 9 W/m² | - |
| 1777681323 | 15° C | 95% | 1009.8 hPa | 3.05 mm | - | 9 W/m² | - |
| 1777681263 | 15° C | 95% | 1009.9 hPa | 3.3 mm | - | 9 W/m² | - |
* Rain latest hour (hover to see other rain measurements)
** Current wind speed in m/s (hover to see current wind gust speed)